| time (UTC) | temp F | wind direction | speed MPH | gust MPH | rain 1hr in | rain 24hr in | rain mn in | humidity % | barometer mb |
| 20260503200005 | 83 | 11 | 5.0 | 11.0 | 0.00 | 0.00 | 0.00 | 16 | 1017.0 |
| 20260503195709 | 83 | 284 | 5.0 | 11.0 | 0.00 | 0.00 | 0.00 | 15 | 1016.9 |
| 20260503194937 | 83 | 263 | 9.0 | 20.0 | 0.00 | 0.00 | 0.00 | 15 | 1017.0 |
| 20260503194630 | 84 | 263 | 10.0 | 20.0 | 0.00 | 0.00 | 0.00 | 14 | 1017.1 |
| 20260503194321 | 84 | 281 | 8.0 | 20.0 | 0.00 | 0.00 | 0.00 | 14 | 1017.0 |
| 20260503194016 | 84 | 327 | 6.0 | 20.0 | 0.00 | 0.00 | 0.00 | 16 | 1017.2 |
| 20260503193710 | 84 | 9 | 6.0 | 20.0 | 0.00 | 0.00 | 0.00 | 16 | 1017.0 |
| 20260503193409 | 84 | 345 | 7.0 | 15.0 | 0.00 | 0.00 | 0.00 | 15 | 1017.1 |
| 20260503193102 | 84 | 345 | 8.0 | 15.0 | 0.00 | 0.00 | 0.00 | 15 | 1017.3 |
| 20260503192802 | 83 | 297 | 8.0 | 15.0 | 0.00 | 0.00 | 0.00 | 15 | 1017.4 |
| 20260503192504 | 84 | 313 | 7.0 | 15.0 | 0.00 | 0.00 | 0.00 | 16 | 1017.3 |
| 20260503192205 | 83 | 355 | 5.0 | 14.0 | 0.00 | 0.00 | 0.00 | 16 | 1017.3 |
| 20260503191900 | 83 | 269 | 4.0 | 14.0 | 0.00 | 0.00 | 0.00 | 16 | 1017.3 |
| 20260503191552 | 83 | 13 | 4.0 | 17.0 | 0.00 | 0.00 | 0.00 | 17 | 1017.5 |
| 20260503190405 | 83 | 346 | 8.0 | 17.0 | 0.00 | 0.00 | 0.00 | 16 | 1017.6 |
| 20260503190057 | 83 | 348 | 8.0 | 17.0 | 0.00 | 0.00 | 0.00 | 17 | 1017.7 |
| 20260503185756 | 83 | 336 | 6.0 | 13.0 | 0.00 | 0.00 | 0.00 | 18 | 1017.8 |
| 20260503185445 | 82 | 340 | 6.0 | 13.0 | 0.00 | 0.00 | 0.00 | 17 | 1017.8 |
| 20260503185134 | 82 | 296 | 5.0 | 11.0 | 0.00 | 0.00 | 0.00 | 17 | 1018.0 |
| 20260503184833 | 82 | 296 | 5.0 | 11.0 | 0.00 | 0.00 | 0.00 | 16 | 1018.0 |
| 20260503184524 | 82 | 311 | 6.0 | 14.0 | 0.00 | 0.00 | 0.00 | 16 | 1018.0 |
| 20260503184223 | 82 | 19 | 8.0 | 14.0 | 0.00 | 0.00 | 0.00 | 16 | 1018.1 |
| 20260503183926 | 82 | 321 | 8.0 | 14.0 | 0.00 | 0.00 | 0.00 | 17 | 1018.1 |
| 20260503183615 | 82 | 292 | 8.0 | 15.0 | 0.00 | 0.00 | 0.00 | 17 | 1018.2 |
| 20260503183316 | 82 | 294 | 7.0 | 15.0 | 0.00 | 0.00 | 0.00 | 18 | 1018.2 |
| 20260503183002 | 82 | 295 | 8.0 | 15.0 | 0.00 | 0.00 | 0.00 | 17 | 1018.4 |
| 20260503182649 | 81 | 234 | 9.0 | 19.0 | 0.00 | 0.00 | 0.00 | 19 | 1018.5 |
| 20260503181916 | 81 | 259 | 11.0 | 19.0 | 0.00 | 0.00 | 0.00 | 19 | 1018.8 |
| 20260503181607 | 81 | 251 | 10.0 | 19.0 | 0.00 | 0.00 | 0.00 | 19 | 1018.8 |
| 20260503181256 | 81 | 236 | 11.0 | 19.0 | 0.00 | 0.00 | 0.00 | 20 | 1019.0 |
| 20260503180944 | 80 | 242 | 10.0 | 19.0 | 0.00 | 0.00 | 0.00 | 20 | 1019.2 |
| 20260503180230 | 79 | 273 | 11.0 | 18.0 | 0.00 | 0.00 | 0.00 | 21 | 1019.3 |
| 20260503175922 | 79 | 270 | 10.0 | 18.0 | 0.00 | 0.00 | 0.00 | 19 | 1019.4 |
| 20260503175623 | 80 | 277 | 10.0 | 18.0 | 0.00 | 0.00 | 0.00 | 19 | 1019.5 |
| 20260503175316 | 80 | 286 | 10.0 | 15.0 | 0.00 | 0.00 | 0.00 | 20 | 1019.5 |
| 20260503174607 | 79 | 266 | 9.0 | 20.0 | 0.00 | 0.00 | 0.00 | 23 | 1019.7 |
| 20260503174304 | 78 | 254 | 10.0 | 20.0 | 0.00 | 0.00 | 0.00 | 23 | 1019.7 |
| 20260503173542 | 78 | 267 | 12.0 | 20.0 | 0.00 | 0.00 | 0.00 | 21 | 1020.0 |
| 20260503173233 | 79 | 271 | 12.0 | 20.0 | 0.00 | 0.00 | 0.00 | 22 | 1020.0 |
| 20260503172922 | 79 | 275 | 12.0 | 20.0 | 0.00 | 0.00 | 0.00 | 21 | 1020.2 |
| 20260503172615 | 78 | 258 | 12.0 | 23.0 | 0.00 | 0.00 | 0.00 | 22 | 1020.2 |
| 20260503172309 | 79 | 250 | 12.0 | 23.0 | 0.00 | 0.00 | 0.00 | 22 | 1020.3 |
| 20260503172009 | 79 | 275 | 12.0 | 23.0 | 0.00 | 0.00 | 0.00 | 23 | 1020.4 |
| 20260503171706 | 78 | 248 | 12.0 | 23.0 | 0.00 | 0.00 | 0.00 | 22 | 1020.4 |
| 20260503171404 | 79 | 262 | 13.0 | 23.0 | 0.00 | 0.00 | 0.00 | 22 | 1020.5 |
| 20260503170645 | 78 | 246 | 12.0 | 20.0 | 0.00 | 0.00 | 0.00 | 20 | 1020.6 |
| 20260503170337 | 78 | 238 | 12.0 | 20.0 | 0.00 | 0.00 | 0.00 | 20 | 1020.7 |
| 20260503150851 | 69 | 265 | 9.0 | 15.0 | 0.00 | 0.00 | 0.00 | 33 | 1022.3 |
| 20260503150550 | 68 | 267 | 10.0 | 15.0 | 0.00 | 0.00 | 0.00 | 33 | 1022.3 |
| 20260503150254 | 67 | 271 | 10.0 | 15.0 | 0.00 | 0.00 | 0.00 | 36 | 1022.4 |
| 20260503131332 | 48 | 222 | 5.0 | 7.0 | 0.00 | 0.00 | 0.00 | 69 | 1023.3 |
| 20260503131023 | 47 | 222 | 5.0 | 7.0 | 0.00 | 0.00 | 0.00 | 71 | 1023.3 |
| 20260503130726 | 46 | 222 | 5.0 | 7.0 | 0.00 | 0.00 | 0.00 | 71 | 1023.2 |
| 20260503130421 | 45 | 222 | 5.0 | 7.0 | 0.00 | 0.00 | 0.00 | 72 | 1023.2 |
| 20260503110551 | 32 | 222 | 2.0 | 4.0 | 0.00 | 0.00 | 0.00 | 81 | 1023.4 |
| 20260503110243 | 32 | 222 | 2.0 | 4.0 | 0.00 | 0.00 | 0.00 | 81 | 1023.5 |
| 20260503100156 | 33 | 222 | 2.0 | 3.0 | 0.00 | 0.00 | 0.00 | 76 | 1024.0 |
| 20260503090235 | 36 | 222 | 2.0 | 3.0 | 0.00 | 0.00 | 0.00 | 68 | 1024.1 |
| 20260503081332 | 42 | 222 | 5.0 | 8.0 | 0.00 | 0.00 | 0.00 | 61 | 1024.4 |
| 20260503081026 | 43 | 222 | 6.0 | 11.0 | 0.00 | 0.00 | 0.00 | 61 | 1024.4 |
| 20260503080725 | 43 | 222 | 7.0 | 11.0 | 0.00 | 0.00 | 0.00 | 61 | 1024.3 |
| 20260503080421 | 43 | 222 | 8.0 | 11.0 | 0.00 | 0.00 | 0.00 | 62 | 1024.1 |
| 20260503080111 | 43 | 222 | 8.0 | 11.0 | 0.00 | 0.00 | 0.00 | 62 | 1024.0 |
| 20260503072717 | 44 | 223 | 7.0 | 11.0 | 0.00 | 0.00 | 0.00 | 58 | 1024.7 |
| 20260503072412 | 45 | 223 | 8.0 | 11.0 | 0.00 | 0.00 | 0.00 | 58 | 1024.7 |
| 20260503072105 | 45 | 223 | 8.0 | 11.0 | 0.00 | 0.00 | 0.00 | 58 | 1024.9 |
| 20260503071801 | 45 | 223 | 7.0 | 9.0 | 0.00 | 0.00 | 0.00 | 58 | 1024.9 |
| 20260503071449 | 45 | 223 | 7.0 | 10.0 | 0.00 | 0.00 | 0.00 | 57 | 1024.9 |
| 20260503071149 | 45 | 223 | 7.0 | 10.0 | 0.00 | 0.00 | 0.00 | 57 | 1025.1 |
| 20260503070845 | 46 | 223 | 7.0 | 10.0 | 0.00 | 0.00 | 0.00 | 56 | 1025.2 |
| 20260503060146 | 49 | 226 | 9.0 | 13.0 | 0.00 | 0.00 | 0.00 | 52 | 1025.6 |
| 20260503055115 | 49 | 233 | 8.0 | 11.0 | 0.00 | 0.00 | 0.00 | 50 | 1025.6 |
| 20260503054815 | 50 | 233 | 8.0 | 11.0 | 0.00 | 0.00 | 0.00 | 49 | 1025.6 |
| 20260503054514 | 50 | 234 | 8.0 | 11.0 | 0.00 | 0.00 | 0.00 | 49 | 1025.7 |
| 20260503054203 | 51 | 235 | 8.0 | 11.0 | 0.00 | 0.00 | 0.00 | 48 | 1025.7 |
| 20260503053857 | 51 | 236 | 9.0 | 11.0 | 0.00 | 0.00 | 0.00 | 48 | 1025.6 |
| 20260503053547 | 51 | 237 | 8.0 | 11.0 | 0.00 | 0.00 | 0.00 | 48 | 1025.7 |
| 20260503053244 | 51 | 239 | 8.0 | 11.0 | 0.00 | 0.00 | 0.00 | 48 | 1025.7 |
| 20260503052940 | 50 | 240 | 8.0 | 11.0 | 0.00 | 0.00 | 0.00 | 48 | 1025.7 |
| 20260503052633 | 50 | 241 | 8.0 | 11.0 | 0.00 | 0.00 | 0.00 | 49 | 1025.7 |
| 20260503052324 | 50 | 242 | 7.0 | 10.0 | 0.00 | 0.00 | 0.00 | 50 | 1025.6 |
| 20260503051600 | 49 | 243 | 7.0 | 9.0 | 0.00 | 0.00 | 0.00 | 51 | 1025.9 |
| 20260503051304 | 49 | 243 | 6.0 | 8.0 | 0.00 | 0.00 | 0.00 | 51 | 1025.8 |
| 20260503050951 | 49 | 243 | 6.0 | 9.0 | 0.00 | 0.00 | 0.00 | 50 | 1025.8 |
| 20260503050643 | 50 | 243 | 6.0 | 9.0 | 0.00 | 0.00 | 0.00 | 49 | 1025.8 |
| 20260503050346 | 50 | 243 | 6.0 | 9.0 | 0.00 | 0.00 | 0.00 | 48 | 1025.9 |
| 20260503045631 | 50 | 243 | 7.0 | 9.0 | 0.00 | 0.00 | 0.00 | 48 | 1025.7 |
| 20260503044909 | 50 | 243 | 7.0 | 9.0 | 0.00 | 0.00 | 0.00 | 48 | 1025.8 |
| 20260503044608 | 50 | 244 | 7.0 | 9.0 | 0.00 | 0.00 | 0.00 | 48 | 1025.8 |
| 20260503044308 | 50 | 244 | 6.0 | 9.0 | 0.00 | 0.00 | 0.00 | 47 | 1025.8 |
| 20260503044000 | 50 | 244 | 6.0 | 8.0 | 0.00 | 0.00 | 0.00 | 47 | 1025.8 |
| 20260503043245 | 49 | 244 | 5.0 | 8.0 | 0.00 | 0.00 | 0.00 | 47 | 1025.8 |
| 20260503042944 | 49 | 244 | 6.0 | 8.0 | 0.00 | 0.00 | 0.00 | 47 | 1025.7 |
| 20260503042647 | 49 | 244 | 6.0 | 8.0 | 0.00 | 0.00 | 0.00 | 46 | 1025.7 |
| 20260503042344 | 49 | 244 | 6.0 | 8.0 | 0.00 | 0.00 | 0.00 | 46 | 1025.8 |
| 20260503042035 | 50 | 244 | 6.0 | 8.0 | 0.00 | 0.00 | 0.00 | 46 | 1025.8 |
| 20260503040442 | 51 | 244 | 6.0 | 8.0 | 0.00 | 0.00 | 0.00 | 44 | 1025.8 |
| 20260503040140 | 51 | 244 | 6.0 | 8.0 | 0.00 | 0.00 | 0.00 | 44 | 1025.8 |
| 20260503035843 | 51 | 244 | 6.0 | 8.0 | 0.00 | 0.00 | 0.00 | 44 | 1025.7 |
| 20260503035539 | 51 | 244 | 6.0 | 9.0 | 0.00 | 0.00 | 0.00 | 44 | 1025.7 |
| 20260503035234 | 51 | 244 | 6.0 | 9.0 | 0.00 | 0.00 | 0.00 | 43 | 1025.7 |
| 20260503034937 | 52 | 244 | 6.0 | 9.0 | 0.00 | 0.00 | 0.00 | 43 | 1025.8 |
| 20260503034635 | 52 | 244 | 6.0 | 9.0 | 0.00 | 0.00 | 0.00 | 42 | 1025.7 |
| 20260503033901 | 52 | 244 | 4.0 | 9.0 | 0.00 | 0.00 | 0.00 | 42 | 1025.7 |
| 20260503033600 | 52 | 244 | 4.0 | 8.0 | 0.00 | 0.00 | 0.00 | 42 | 1025.8 |
| 20260503033303 | 52 | 244 | 4.0 | 6.0 | 0.00 | 0.00 | 0.00 | 41 | 1025.7 |
| 20260503033000 | 53 | 244 | 5.0 | 6.0 | 0.00 | 0.00 | 0.00 | 40 | 1025.6 |
| 20260503032232 | 53 | 244 | 5.0 | 8.0 | 0.00 | 0.00 | 0.00 | 40 | 1025.8 |
| 20260503031935 | 53 | 244 | 5.0 | 8.0 | 0.00 | 0.00 | 0.00 | 40 | 1025.7 |
| 20260503031638 | 54 | 244 | 5.0 | 8.0 | 0.00 | 0.00 | 0.00 | 40 | 1025.7 |
| 20260503031334 | 54 | 244 | 6.0 | 8.0 | 0.00 | 0.00 | 0.00 | 40 | 1025.7 |
| 20260503031037 | 54 | 244 | 6.0 | 8.0 | 0.00 | 0.00 | 0.00 | 39 | 1025.6 |
| 20260503030732 | 54 | 244 | 6.0 | 8.0 | 0.00 | 0.00 | 0.00 | 39 | 1025.7 |
| 20260503030433 | 54 | 244 | 6.0 | 8.0 | 0.00 | 0.00 | 0.00 | 39 | 1025.6 |
| 20260503030136 | 55 | 244 | 6.0 | 8.0 | 0.00 | 0.00 | 0.00 | 38 | 1025.6 |
| 20260503025836 | 55 | 244 | 6.0 | 8.0 | 0.00 | 0.00 | 0.00 | 37 | 1025.6 |
| 20260503024632 | 56 | 244 | 7.0 | 9.0 | 0.00 | 0.00 | 0.00 | 37 | 1025.6 |
| 20260503024319 | 57 | 244 | 6.0 | 9.0 | 0.00 | 0.00 | 0.00 | 35 | 1025.5 |
| 20260503024005 | 58 | 244 | 6.0 | 9.0 | 0.00 | 0.00 | 0.00 | 33 | 1025.5 |
| 20260503023708 | 59 | 244 | 6.0 | 9.0 | 0.00 | 0.00 | 0.00 | 33 | 1025.5 |
| 20260503023412 | 59 | 244 | 6.0 | 9.0 | 0.00 | 0.00 | 0.00 | 32 | 1025.4 |
| 20260503022643 | 60 | 245 | 6.0 | 10.0 | 0.00 | 0.00 | 0.00 | 31 | 1025.3 |
| 20260503021903 | 60 | 245 | 6.0 | 10.0 | 0.00 | 0.00 | 0.00 | 31 | 1025.4 |
| 20260503021556 | 60 | 245 | 6.0 | 10.0 | 0.00 | 0.00 | 0.00 | 31 | 1025.4 |
| 20260503021248 | 60 | 245 | 7.0 | 10.0 | 0.00 | 0.00 | 0.00 | 30 | 1025.3 |
| 20260503020942 | 60 | 246 | 6.0 | 9.0 | 0.00 | 0.00 | 0.00 | 31 | 1025.4 |
| 20260503020633 | 59 | 246 | 6.0 | 9.0 | 0.00 | 0.00 | 0.00 | 33 | 1025.4 |
| 20260503020324 | 59 | 246 | 6.0 | 9.0 | 0.00 | 0.00 | 0.00 | 33 | 1025.4 |
| 20260503020019 | 59 | 246 | 6.0 | 8.0 | 0.00 | 0.00 | 0.00 | 34 | 1025.4 |
| 20260503015722 | 59 | 246 | 5.0 | 8.0 | 0.00 | 0.00 | 0.00 | 34 | 1025.4 |
| 20260503015413 | 59 | 246 | 5.0 | 7.0 | 0.00 | 0.00 | 0.00 | 35 | 1025.4 |
| 20260503015114 | 60 | 246 | 5.0 | 8.0 | 0.00 | 0.00 | 0.00 | 34 | 1025.4 |
| 20260503014805 | 60 | 246 | 5.0 | 8.0 | 0.00 | 0.00 | 0.00 | 34 | 1025.3 |
| 20260503014456 | 61 | 246 | 5.0 | 8.0 | 0.00 | 0.00 | 0.00 | 33 | 1025.4 |
| 20260503014158 | 62 | 246 | 5.0 | 8.0 | 0.00 | 0.00 | 0.00 | 32 | 1025.4 |
| 20260503013853 | 63 | 246 | 5.0 | 8.0 | 0.00 | 0.00 | 0.00 | 31 | 1025.3 |
| 20260503013541 | 63 | 246 | 5.0 | 8.0 | 0.00 | 0.00 | 0.00 | 31 | 1025.3 |
| 20260503013230 | 63 | 246 | 4.0 | 7.0 | 0.00 | 0.00 | 0.00 | 31 | 1025.2 |
| 20260503012927 | 63 | 246 | 4.0 | 5.0 | 0.00 | 0.00 | 0.00 | 30 | 1025.3 |
| 20260503012628 | 64 | 246 | 4.0 | 6.0 | 0.00 | 0.00 | 0.00 | 29 | 1025.3 |
| 20260503012320 | 65 | 246 | 4.0 | 6.0 | 0.00 | 0.00 | 0.00 | 29 | 1025.3 |
| 20260503012017 | 65 | 246 | 4.0 | 6.0 | 0.00 | 0.00 | 0.00 | 28 | 1025.3 |
| 20260503011705 | 66 | 246 | 4.0 | 9.0 | 0.00 | 0.00 | 0.00 | 27 | 1025.3 |
| 20260503011401 | 67 | 246 | 4.0 | 9.0 | 0.00 | 0.00 | 0.00 | 27 | 1025.4 |
| 20260503011051 | 67 | 246 | 5.0 | 9.0 | 0.00 | 0.00 | 0.00 | 27 | 1025.4 |
| 20260503010751 | 68 | 246 | 5.0 | 9.0 | 0.00 | 0.00 | 0.00 | 25 | 1025.3 |
| 20260503010027 | 69 | 246 | 6.0 | 9.0 | 0.00 | 0.00 | 0.00 | 25 | 1025.4 |
| 20260503005719 | 69 | 246 | 6.0 | 9.0 | 0.00 | 0.00 | 0.00 | 24 | 1025.4 |
| 20260503005408 | 70 | 246 | 6.0 | 9.0 | 0.00 | 0.00 | 0.00 | 24 | 1025.3 |
| 20260503005109 | 70 | 246 | 6.0 | 9.0 | 0.00 | 0.00 | 0.00 | 23 | 1025.2 |
| 20260503004755 | 70 | 249 | 5.0 | 9.0 | 0.00 | 0.00 | 0.00 | 23 | 1025.3 |
| 20260503004458 | 71 | 250 | 4.0 | 9.0 | 0.00 | 0.00 | 0.00 | 22 | 1025.2 |
| 20260503004151 | 71 | 250 | 4.0 | 8.0 | 0.00 | 0.00 | 0.00 | 22 | 1025.2 |
| 20260503003011 | 71 | 250 | 6.0 | 9.0 | 0.00 | 0.00 | 0.00 | 21 | 1025.2 |
| 20260503002709 | 72 | 250 | 5.0 | 10.0 | 0.00 | 0.00 | 0.00 | 20 | 1025.2 |
| 20260503001533 | 72 | 250 | 6.0 | 10.0 | 0.00 | 0.00 | 0.00 | 21 | 1025.4 |
| 20260503001220 | 72 | 249 | 6.0 | 10.0 | 0.00 | 0.00 | 0.00 | 21 | 1025.6 |
| 20260503000923 | 72 | 249 | 6.0 | 10.0 | 0.00 | 0.00 | 0.00 | 21 | 1025.7 |
| 20260503000619 | 72 | 251 | 5.0 | 10.0 | 0.00 | 0.00 | 0.00 | 21 | 1025.6 |
| 20260503000322 | 72 | 251 | 5.0 | 10.0 | 0.00 | 0.00 | 0.00 | 21 | 1025.6 |
| 20260502235605 | 72 | 251 | 7.0 | 11.0 | 0.00 | 0.00 | 0.00 | 21 | 1025.6 |
| 20260502235304 | 72 | 253 | 7.0 | 11.0 | 0.00 | 0.00 | 0.00 | 21 | 1025.7 |
| 20260502234949 | 72 | 253 | 7.0 | 11.0 | 0.00 | 0.00 | 0.00 | 21 | 1025.7 |
| 20260502234648 | 72 | 253 | 8.0 | 11.0 | 0.00 | 0.00 | 0.00 | 21 | 1025.7 |
| 20260502234337 | 72 | 254 | 7.0 | 11.0 | 0.00 | 0.00 | 0.00 | 21 | 1025.7 |
| 20260502234028 | 73 | 246 | 6.0 | 11.0 | 0.00 | 0.00 | 0.00 | 21 | 1025.7 |
| 20260502233727 | 73 | 249 | 5.0 | 11.0 | 0.00 | 0.00 | 0.00 | 20 | 1025.7 |
| 20260502233421 | 73 | 250 | 4.0 | 11.0 | 0.00 | 0.00 | 0.00 | 21 | 1025.8 |
| 20260502233114 | 73 | 249 | 4.0 | 11.0 | 0.00 | 0.00 | 0.00 | 21 | 1025.6 |
| 20260502232817 | 73 | 249 | 4.0 | 11.0 | 0.00 | 0.00 | 0.00 | 21 | 1025.8 |
| 20260502232503 | 73 | 250 | 4.0 | 10.0 | 0.00 | 0.00 | 0.00 | 21 | 1025.8 |
| 20260502232204 | 73 | 250 | 4.0 | 10.0 | 0.00 | 0.00 | 0.00 | 21 | 1025.8 |
| 20260502231852 | 73 | 250 | 4.0 | 10.0 | 0.00 | 0.00 | 0.00 | 21 | 1025.8 |
| 20260502231121 | 73 | 225 | 3.0 | 6.0 | 0.00 | 0.00 | 0.00 | 22 | 1025.8 |
| 20260502230811 | 73 | 225 | 5.0 | 12.0 | 0.00 | 0.00 | 0.00 | 22 | 1025.8 |
| 20260502230503 | 73 | 225 | 6.0 | 12.0 | 0.00 | 0.00 | 0.00 | 22 | 1025.8 |
| 20260502230155 | 73 | 225 | 7.0 | 12.0 | 0.00 | 0.00 | 0.00 | 22 | 1025.9 |
| 20260502225426 | 73 | 203 | 6.0 | 13.0 | 0.00 | 0.00 | 0.00 | 23 | 1025.8 |
| 20260502225117 | 73 | 303 | 5.0 | 13.0 | 0.00 | 0.00 | 0.00 | 21 | 1025.9 |
| 20260502224355 | 73 | 246 | 6.0 | 14.0 | 0.00 | 0.00 | 0.00 | 23 | 1026.0 |
| 20260502223629 | 73 | 245 | 7.0 | 14.0 | 0.00 | 0.00 | 0.00 | 23 | 1026.1 |
| 20260502223317 | 73 | 263 | 6.0 | 14.0 | 0.00 | 0.00 | 0.00 | 22 | 1026.2 |
| 20260502223010 | 74 | 268 | 5.0 | 12.0 | 0.00 | 0.00 | 0.00 | 23 | 1026.2 |
| 20260502222712 | 74 | 267 | 5.0 | 9.0 | 0.00 | 0.00 | 0.00 | 23 | 1026.2 |
| 20260502221929 | 73 | 264 | 5.0 | 12.0 | 0.00 | 0.00 | 0.00 | 23 | 1026.3 |
| 20260502221630 | 73 | 261 | 5.0 | 12.0 | 0.00 | 0.00 | 0.00 | 22 | 1026.3 |
| 20260502221320 | 73 | 232 | 5.0 | 17.0 | 0.00 | 0.00 | 0.00 | 23 | 1026.5 |
| 20260502221017 | 73 | 223 | 6.0 | 17.0 | 0.00 | 0.00 | 0.00 | 23 | 1026.6 |
| 20260502220711 | 72 | 213 | 6.0 | 17.0 | 0.00 | 0.00 | 0.00 | 24 | 1026.7 |
| 20260502220405 | 72 | 216 | 9.0 | 17.0 | 0.00 | 0.00 | 0.00 | 24 | 1026.7 |
| 20260502215800 | 73 | 265 | 10.0 | 17.0 | 0.00 | 0.00 | 0.00 | 24 | 1026.9 |
| 20260502215021 | 73 | 257 | 9.0 | 15.0 | 0.00 | 0.00 | 0.00 | 24 | 1026.9 |
| 20260502214253 | 73 | 238 | 6.0 | 17.0 | 0.00 | 0.00 | 0.00 | 24 | 1027.0 |
| 20260502213951 | 73 | 219 | 7.0 | 17.0 | 0.00 | 0.00 | 0.00 | 25 | 1027.0 |
| 20260502213644 | 73 | 248 | 7.0 | 17.0 | 0.00 | 0.00 | 0.00 | 24 | 1027.1 |
| 20260502213335 | 73 | 257 | 8.0 | 17.0 | 0.00 | 0.00 | 0.00 | 25 | 1027.2 |
| 20260502213023 | 73 | 258 | 7.0 | 17.0 | 0.00 | 0.00 | 0.00 | 24 | 1027.2 |
| 20260502212250 | 72 | 202 | 3.0 | 11.0 | 0.00 | 0.00 | 0.00 | 26 | 1027.4 |
| 20260502211952 | 72 | 253 | 3.0 | 10.0 | 0.00 | 0.00 | 0.00 | 26 | 1027.4 |
| 20260502211226 | 72 | 253 | 6.0 | 14.0 | 0.00 | 0.00 | 0.00 | 25 | 1027.6 |
| 20260502210509 | 72 | 252 | 9.0 | 14.0 | 0.00 | 0.00 | 0.00 | 24 | 1027.8 |
| 20260502210205 | 72 | 253 | 8.0 | 14.0 | 0.00 | 0.00 | 0.00 | 26 | 1027.9 |
| 20260502205904 | 72 | 252 | 7.0 | 14.0 | 0.00 | 0.00 | 0.00 | 25 | 1027.8 |
| 20260502205555 | 72 | 259 | 5.0 | 11.0 | 0.00 | 0.00 | 0.00 | 26 | 1027.9 |
| 20260502204832 | 71 | 254 | 4.0 | 12.0 | 0.00 | 0.00 | 0.00 | 28 | 1028.0 |
| 20260502204532 | 71 | 254 | 6.0 | 12.0 | 0.00 | 0.00 | 0.00 | 28 | 1028.1 |
| 20260502204222 | 71 | 255 | 6.0 | 12.0 | 0.00 | 0.00 | 0.00 | 28 | 1028.1 |
| 20260502203918 | 71 | 259 | 6.0 | 12.0 | 0.00 | 0.00 | 0.00 | 28 | 1028.2 |
| 20260502203612 | 71 | 259 | 6.0 | 12.0 | 0.00 | 0.00 | 0.00 | 26 | 1028.2 |
| 20260502203314 | 71 | 262 | 6.0 | 12.0 | 0.00 | 0.00 | 0.00 | 27 | 1028.2 |
| 20260502203017 | 71 | 252 | 7.0 | 13.0 | 0.00 | 0.00 | 0.00 | 27 | 1028.2 |
| 20260502202259 | 71 | 259 | 7.0 | 13.0 | 0.00 | 0.00 | 0.00 | 27 | 1028.3 |
| 20260502201946 | 71 | 258 | 5.0 | 14.0 | 0.00 | 0.00 | 0.00 | 27 | 1028.3 |
| 20260502201634 | 71 | 269 | 3.0 | 14.0 | 0.00 | 0.00 | 0.00 | 29 | 1028.3 |
| 20260502201326 | 70 | 340 | 3.0 | 14.0 | 0.00 | 0.00 | 0.00 | 27 | 1028.3 |
| 20260502201014 | 70 | 340 | 4.0 | 14.0 | 0.00 | 0.00 | 0.00 | 28 | 1028.4 |
| 20260502200713 | 70 | 340 | 4.0 | 14.0 | 0.00 | 0.00 | 0.00 | 28 | 1028.3 |
| 20260502200406 | 70 | 340 | 6.0 | 14.0 | 0.00 | 0.00 | 0.00 | 27 | 1028.4 |